Miscellaneous Local Product
Issued by NWS Hastings, NE

Home | Current Version | Previous Version | Graphics & Text | Print | Product List | Glossary On
Versions: 1 2 3 4 5 6 7 8 9 10 11 12 13 14 15 16 17 18 19 20 21 22 23 24 25 26 27 28 29 30 31 32 33 34 35 36 37 38 39 40 41 42 43 44 45 46 47 48 49 50
080
AXUS43 KGID 250802
MISGRI

GID CWA HOURLY WEATHER ROUNDUP
NATIONAL WEATHER SERVICE HASTINGS NE
300 AM CDT TUE APR 25 2017

NOTE: "FAIR" INDICATES FEW OR NO CLOUDS BELOW 12,000 FEET WITH NO
SIGNIFICANT WEATHER AND/OR OBSTRUCTIONS TO VISIBILITY.

...SOUTH CENTRAL NEBRASKA...

CITY           SKY/WX    TMP DP  RH WIND       PRES   REMARKS
GRAND ISLAND   CLOUDY    46  40  79 N14       29.54F
HASTINGS       MOCLDY    50  39  66 NE13      29.55F
KEARNEY        MOCLDY    48  37  66 N13       29.57F
ORD            CLOUDY    47  39  74 N10       29.57R
YORK           CLOUDY    46  41  81 N12       29.55S
AURORA         CLOUDY    47  40  76 N8        29.54F
LEXINGTON      LGT RAIN  48  43  82 NE12      29.57R
HOLDREGE       CLOUDY    51  39  64 N16G24    29.53F
HEBRON         CLOUDY    53  43  66 N7        29.52F

...NEBRASKA PANHANDLE...

CITY           SKY/WX    TMP DP  RH WIND       PRES   REMARKS
CHADRON        LGT RAIN  46  44  93 NE13      29.58F
ALLIANCE       RAIN      46  44  93 W3        29.59R FOG
SCOTTSBLUFF    LGT RAIN  46  43  89 E12       29.56F
SIDNEY         LGT RAIN  42  40  92 NW17      29.58F

...WESTERN AND NORTH CENTRAL NEBRASKA...

CITY           SKY/WX    TMP DP  RH WIND       PRES   REMARKS
VALENTINE      CLOUDY    39  33  79 NE13      29.61F WCI  31
AINSWORTH      CLOUDY    40  38  93 NE9       29.60F WCI  34
ONEILL         CLOUDY    42  38  86 N10       29.62R
BROKEN BOW     LGT RAIN  46  40  79 N15       29.55F
IMPERIAL       CLOUDY    46  43  89 E17G25    29.48F
NORTH PLATTE   CLOUDY    47  45  93 E10       29.54F
MCCOOK         CLOUDY    53  41  63 N17G28    29.52R

...EASTERN NEBRASKA...

CITY           SKY/WX    TMP DP  RH WIND       PRES   REMARKS
NORFOLK        CLOUDY    45  38  76 N9        29.58R
SO SIOUX CITY  MOCLDY    46  41  82 NW8       29.55R
TEKAMAH        CLOUDY    50  42  74 NW8       29.53S
ALBION         CLOUDY    47  40  76 N7        29.57S
OMAHA EPPLEY   CLOUDY    54  43  66 N12       29.51S
OFFUTT AFB     CLOUDY    51  45  78 NW5       29.50F
MILLARD        CLOUDY    56  46  68 NW6       29.51S
LINCOLN        MOCLDY    52  42  69 N14       29.54F
NEBRASKA CITY  CLOUDY    56  42  59 S9        29.49F
BEATRICE       PTCLDY    53  49  87 N7        29.50S
FALLS CITY     CLOUDY    55  47  74 SE6       29.49F

...NORTHERN KANSAS...

CITY           SKY/WX    TMP DP  RH WIND       PRES   REMARKS
GOODLAND       CLOUDY    50  41  71 NE17      29.44F
HILL CITY      CLOUDY    59  45  59 NE14      29.45F
NORTON         MOSUNNY   54  37  54 NE14      29.47F
PHILLIPSBURG   CLEAR     57  43  58 NE16      29.46F
SMITH CENTER   PTCLDY    55  45  67 NE17      29.47F
HAYS           MOCLDY    61  50  67 SE13      29.41F
RUSSELL        CLOUDY    59  51  75 SE7       29.41F
CONCORDIA      CLOUDY    57  53  86 N6        29.48F
SALINA         LGT RAIN  63  50  62 SE13      29.43F
TOPEKA         CLOUDY    62  49  62 SE9       29.50F



USA.gov is the U.S. government's official web portal to all federal, state and local government web resources and services.